Location: Krakow
(50.0830°N, 19.9170°E)
Time: 20:02:10
(UTC+01:00)

Altair - Pass Details

Date: 10 December 2023
Orbit: 1501 x 1682 km, 47.2° (Epoch: 03 March)

Event Time Altitude Azimuth Distance (km) Brightness Sun altitude
Rises 08:04:52 0° 248° (WSW) 4,842 9.9 3.8°
Reaches altitude 10° 08:08:03 10° 246° (WSW) 3,833 9.4 4.1°
Maximum altitude 08:17:40 70° 166° (SSE) 1,656 8.1 5.2°
Drops below altitude 10° 08:26:56 10° 85° (E) 3,701 10.1 6.2°
Sets 08:29:57 0° 84° (E) 4,667 10.6 6.6°
